STARLINK-35271, 65812

Orbit data source: Space-Track

STARLINK-35271, 65812 is a payload satellite owned by SpaceX/Seattle (US) in SSO that was launched on Fri, 26 Sep 2025 UTC via an FALCON 9 launch vehicle from the Air Force Western Test Range (AFWTR). Payload-class satellites include a variety of spacecraft equipped with specific instruments for various scientific and technological missions. These include communications satellites like Starlink; space stations such as the ISS; scientific satellites like the Hubble; Earth observation satellites from companies like Planet Labs, Umbra, and HawkEye 360; GPS; miniature CubeSats for education and research; and military/defense satellites.

Loading next visibility...
Identifier
65812, 2025-218X
Orbit
SSO
Country
Flag of USUS
Related business
Manufacturer
SpaceX/Seattle
Mission
Operational Commercial Communications
Bus & Motor
STARLINK V2MO, Unknown motor
Mass
575 kg wet, ~530 kg dry
Launch date (UTC)
2025-09-26 (9 months ago)
Launch vehicle
FALCON 9
Launch site
Air Force Western Test Range (AFWTR)
Object type
Payload
Rocket body
Debris
Shape & HBR
Box + 2 Pan, 17.7 m
Radar Cross Section
36.964 m², Large (>1 m²)

Expand to show TLE details & history
Last TLE update: 20 hours ago

TLE from 20 hours ago
0 STARLINK-35271
1 65812U 25218X   26171.03493181  .00005136  00000-0  35954-3 0  9990
2 65812  97.3406  32.8071 0001672  90.6596 269.4823 15.05664691 40376
Epoch: 2026-06-20T00:50Z
TLE epoch observation values (Epoch: 2026-06-20T00:50:18.108Z)
Latitude
-0.00003°
Longitude
111.97631°
Altitude
552.549 km
Speed
7.585 km/s
True Right ascension
02h 11m 13s
True Declination
0° 00' 00"
Sunlit
Object was in daylight at epoch
Visualization orbit readout
Latitude
Unknown
Longitude
Unknown
Altitude
Unknown
Speed
Unknown
Apparent Right ascension
Unknown
Apparent Declination
Unknown
Sunlit
N/A
Visualization observer readout
Local Sidereal Time
07:20:51
Azimuth
Unknown
Elevation
Unknown
Doppler factor
Unknown
Orbital elements
Apogee altitude
547.606 km
Perigee altitude
545.291 km
Semi-major axis
6,924.585 km
Eccentricity
0.00017
Inclination
97.3406°
RAAN
32.8071°
Arg. of periapsis
90.6596°
True anomaly
269.46314°
Mean anomaly
269.4823°
Eccentric anomaly
269.47272°
Mean motion
3.76663 °/min
Orbital period
95.58 mins
BSTAR
0.00035954
Loading maneuver chart data...
Computing Atmospheric mass density...
Loading historical data...
Loading historical data...
Loading historical data...
Loading historical data...
Loading historical data...
Loading historical data...
Loading historical data...

Documentation

Showing up to 5 results
|